DELTA 1 DEB

Satellite information

Favourite Embed

Satellite Type and Status

DEBRISIN ORBIT

Key statistics

Satellite DELTA 1 DEB at a glance.

Uptime

17290

Days in orbit

Revolutions

≈ 14.0

Per day

Orbit

SSO

Sun Synchronous Orbit

Inclination

98.9

Latest

Satellite identification and parameters

Extended collection of information and parameters for DELTA 1 DEB.

Object identification

Identified? True

Debris? True

Object name: DELTA 1 DEB

International designator: 1978-026EL

Object number (NORAD): 12292

Object ID (CCSDS): 12292

Country: UNITED STATES OF AMERICA (US)

Current information (Y/N): Y

RCS size: SMALL

Orbital parameters

Period: 102.564 minutes

Inclination: 98.9146 deg

SMA: 7258.086 km

Apoapsis: 916.83 km

Periapsis: 843.073 km

RAAN: 293.1164 deg

Eccentricy: 0.005081

Argument of periapsis: 131.6474 deg

Mean anomaly: 20.2024 deg

Mean motion: 14.04007934 rev/day

Mean motion (dot): 0.00000412 rev/day2

B* drag term: 0.00028484 1/REarth

Two-line elements (TLE)

Creation date: July 5, 2025, 10:56 p.m.

Reference frame: TEME

Reference center: EARTH

Epoch: July 5, 2025, 6:38 p.m. UTC

TLE line 0: 0 DELTA 1 DEB

TLE line 1: 1 12292U 78026EL 25186.77673862 .00000412 00000-0 28484-3 0 9993

TLE line 2: 2 12292 98.9146 293.1164 0050810 131.6474 20.2024 14.04007934241921

Live tracking on map

Real-time ground track for satellite DELTA 1 DEB.

In-orbit conjunctions

A list of the most updated potential collisions computed for object DELTA 1 DEB.

Target Orbit TCA Probability of collision Miss distance Type
CZ-4B DEB SSO 2024-11-11 07:58:35 0.0001707848 131.0 (m) DEBRIS

Associated space launch

Earth observation satellite

DELTA 1 DEB was lifted into orbit during the mission ‘Delta 2910 | Landsat 3’, on board a Delta 2910 space rocket.

The launch took place on March 5, 1978, 5:54 p.m. from Space Launch Complex 2W.

For more information about the launch, click the button.

Launch to space Delta 2910 | Landsat 3
Delta 2910 | Landsat 3

Agency: N/A

Status: Launch Successful

Launch date: March 5, 1978, 5:54 p.m. UTC

Rocket: Delta 2910

Launch pad: Space Launch Complex 2W

Location: Vandenberg SFB, CA, USA

...

Latest news about this satellite

There are no fresh news available about this satellite. Check back as we update our databases every day.


Newsletter sign-up

Weekly statistics, charts and insights to help you stay on top of the space industry.